UAL8721 KMCO-KPBI

Flight info

Callsign UAL8721
Flight time N/A
Altitude 17000
Route DDANY3 BORRD CPTAN3
Aircraft B703/M-SDFGHRWY/C

Departure

Time N/A
Airport Orlando International Airport (KMCO)

Arrival

Time 2026-04-29 14:38
Airport Palm Beach International Airport (KPBI)
Time Latitude Longitude Altitude Speed Heading
2026-04-29 14:30 26.79919 -80.15858 3915 ft 242 kts 263°
2026-04-29 14:30 26.79587 -80.17038 3916 ft 239 kts 236°
2026-04-29 14:31 26.77990 -80.18733 3951 ft 239 kts 221°
2026-04-29 14:31 26.77213 -80.19619 3911 ft 241 kts 229°
2026-04-29 14:31 26.76195 -80.21201 3588 ft 249 kts 239°
2026-04-29 14:31 26.75176 -80.23519 3334 ft 248 kts 243°
2026-04-29 14:32 26.74477 -80.25172 3709 ft 221 kts 250°
2026-04-29 14:32 26.74149 -80.26675 4097 ft 181 kts 264°
2026-04-29 14:32 26.73943 -80.28057 4298 ft 180 kts 253°
2026-04-29 14:32 26.73446 -80.29386 4190 ft 190 kts 238°
2026-04-29 14:33 26.72564 -80.30487 3898 ft 191 kts 212°
2026-04-29 14:33 26.71329 -80.30953 3551 ft 187 kts 181°
2026-04-29 14:33 26.70087 -80.30660 3226 ft 184 kts 151°
2026-04-29 14:33 26.69139 -80.29719 2933 ft 178 kts 121°
2026-04-29 14:34 26.68829 -80.28909 2891 ft 170 kts 101°
2026-04-29 14:34 26.69017 -80.27255 2916 ft 153 kts 74°
2026-04-29 14:34 26.69268 -80.26035 2728 ft 169 kts 87°
2026-04-29 14:34 26.69171 -80.24725 2619 ft 170 kts 98°
2026-04-29 14:35 26.69029 -80.23413 2411 ft 171 kts 97°
2026-04-29 14:35 26.68945 -80.22517 2260 ft 171 kts 96°
2026-04-29 14:35 26.68841 -80.21202 1939 ft 170 kts 95°
2026-04-29 14:35 26.68727 -80.19469 1588 ft 167 kts 94°
2026-04-29 14:36 26.68679 -80.18611 1432 ft 167 kts 94°
2026-04-29 14:36 26.68590 -80.16876 1128 ft 167 kts 94°
2026-04-29 14:36 26.68549 -80.16007 979 ft 167 kts 94°
2026-04-29 14:36 26.68489 -80.14698 755 ft 168 kts 94°
2026-04-29 14:37 26.68420 -80.12967 453 ft 165 kts 92°
2026-04-29 14:37 26.68385 -80.12140 338 ft 150 kts 94°
2026-04-29 14:37 26.68310 -80.10635 90 ft 145 kts 93°
2026-04-29 14:37 26.68267 -80.09565 19 ft 127 kts 93°
2026-04-29 14:38 26.68241 -80.08993 19 ft 72 kts 94°
2026-04-29 14:38 26.68268 -80.08659 19 ft 17 kts 40°
2026-04-29 14:38 26.68329 -80.08661 19 ft 12 kts 301°
2026-04-29 14:38 26.68342 -80.08762 19 ft 13 kts 274°
2026-04-29 14:39 26.68348 -80.08904 19 ft 13 kts 269°
2026-04-29 14:39 26.68350 -80.08977 19 ft 14 kts 273°
2026-04-29 14:39 26.68356 -80.09094 19 ft 15 kts 273°
2026-04-29 14:39 26.68361 -80.09223 19 ft 17 kts 273°
2026-04-29 14:40 26.68382 -80.09338 19 ft 15 kts 306°
2026-04-29 14:40 26.68469 -80.09372 19 ft 13 kts 39°
2026-04-29 14:40 26.68529 -80.09348 19 ft 9 kts 321°
2026-04-29 14:40 26.68577 -80.09409 19 ft 11 kts 313°
2026-04-29 14:41 26.68638 -80.09474 19 ft 12 kts 315°
2026-04-29 14:41 26.68699 -80.09499 19 ft 9 kts 41°
2026-04-29 14:41 26.68698 -80.09422 19 ft 9 kts 108°
2026-04-29 14:41 26.68689 -80.09392 19 ft 0 kts 110°